Hayward, WI

8:28 PM CDT on April 28, 2017 (GMT -0500)
Sawyer County

Weather History for KHYR - January, 2012

Change the Weather History Date:

Friday, January 20, 2012

  Actual Average Record
Temperature  
Mean Temperature -6 °F -  
Max Temperature 7 °F 21 °F 37 °F (2017)
Min Temperature -20 °F -4 °F -20 °F (2000)
Degree Days  
Heating Degree Days 72    
Moisture  
Dew Point -16 °F    
Average Humidity 63    
Maximum Humidity 76    
Minimum Humidity 43    
Precipitation  
Precipitation 0.00 in - - ()
Sea Level Pressure  
Sea Level Pressure 30.24 in    
Wind  
Wind Speed 1 mph (South)    
Max Wind Speed 5 mph    
Max Gust Speed -    
Visibility 10 miles    
Events      
Averages and records for this station are not official NWS values.
T = Trace of Precipitation, MM = Missing Value Source: NWS Daily Summary

Daily Weather History Graph

Daily Weather History Graph

Search for Another Location

Airport or City:

Trip Planner

Search our weather history database for the weather conditions in past years. The results will help you decide how hot, cold, wet, or windy it might be!

Date:

Astronomy

Jan. 20, 2012 Rise Set
Actual Time 7:40 AM CST 4:53 PM CST
Civil Twilight 7:07 AM CST 5:26 PM CST
Nautical Twilight 6:30 AM CST 6:03 PM CST
Astronomical Twilight 5:55 AM CST 6:38 PM CST
Moon 5:22 AM CST (1/20) 2:21 PM CST (1/20)
Length of Visible Light 10h 18m
Length of Day
9h 12m
Waning Crescent, 8% of the Moon is Illuminated
Jan 20
Waning Crescent
Jan 23
New
Jan 30
First Quarter
Feb 7
Full
Feb 14
Last Quarter

Hourly Weather History & Observations

Time (CST) Temp. Windchill Dew Point Humidity Pressure Visibility Wind Dir Wind Speed Gust Speed Precip Events Conditions
12:53 AM -18.9 °F - -25.1 °F 74% 30.23 in 10.0 mi Calm Calm - N/A   Clear
1:53 AM -20.0 °F - -27.0 °F 70% 30.22 in 10.0 mi Calm Calm - N/A   Clear
2:53 AM -20.9 °F - -27.0 °F 73% 30.23 in 10.0 mi Calm Calm - N/A   Clear
3:53 AM -18.9 °F - -25.1 °F 74% 30.22 in 10.0 mi Calm Calm - N/A   Clear
4:53 AM -18.9 °F - -26.0 °F 70% 30.22 in 10.0 mi Calm Calm - N/A   Clear
5:53 AM -15.0 °F - -20.9 °F 75% 30.23 in 10.0 mi Calm Calm - N/A   Overcast
6:53 AM -11.0 °F - -18.0 °F 71% 30.22 in 10.0 mi Calm Calm - N/A   Overcast
7:53 AM -9.0 °F - -15.0 °F 75% 30.22 in 10.0 mi Calm Calm - N/A   Overcast
8:53 AM -5.1 °F - -11.0 °F 76% 30.23 in 10.0 mi Calm Calm - N/A   Overcast
9:53 AM -2.0 °F - -11.0 °F 66% 30.25 in 10.0 mi Calm Calm - N/A   Mostly Cloudy
10:53 AM 1.9 °F -5.6 °F -13.0 °F 50% 30.25 in 10.0 mi Variable 3.5 mph - N/A   Overcast
11:53 AM 3.9 °F -3.4 °F -13.0 °F 46% 30.24 in 10.0 mi South 3.5 mph - N/A   Overcast
12:53 PM 5.0 °F -2.1 °F -13.0 °F 43% 30.23 in 10.0 mi Variable 3.5 mph - N/A   Overcast
1:53 PM 6.1 °F -2.8 °F -11.9 °F 44% 30.22 in 10.0 mi South 4.6 mph - N/A   Overcast
2:53 PM 7.0 °F 0.1 °F -11.0 °F 44% 30.23 in 10.0 mi Variable 3.5 mph - N/A   Overcast
3:53 PM 7.0 °F 0.1 °F -11.0 °F 44% 30.23 in 10.0 mi Variable 3.5 mph - N/A   Overcast
4:53 PM 7.0 °F - -9.9 °F 46% 30.23 in 10.0 mi Calm Calm - N/A   Overcast
5:53 PM 7.0 °F - -9.0 °F 48% 30.25 in 10.0 mi Calm Calm - N/A   Overcast
6:53 PM 6.1 °F - -8.0 °F 53% 30.25 in 10.0 mi Calm Calm - N/A   Overcast
7:53 PM 1.0 °F - -9.0 °F 63% 30.26 in 8.0 mi Calm Calm - N/A   Partly Cloudy
8:53 PM -4.0 °F - -9.9 °F 76% 30.27 in 10.0 mi Calm Calm - N/A   Clear
9:53 PM -7.1 °F - -13.0 °F 75% 30.27 in 10.0 mi Calm Calm - N/A   Clear
10:53 PM -9.9 °F - -16.1 °F 74% 30.28 in 10.0 mi Calm Calm - N/A   Clear
11:53 PM -11.9 °F - -18.9 °F 71% 30.29 in 10.0 mi Calm Calm - N/A   Clear